Location: B�gues
(46.1272°N, 3.1557°E)
Time: 07:43:08
(UTC+00:00)

Daily predictions for brighter satellites

Satellite Brightness Start Highest point End
(mag) Time Altitude Azimuth Time Altitude Azimuth Time Altitude Azimuth
CENTAUR R/B 4.3 16:42:15 10° WNW 16:47:32 23° NNW 16:53:25 10° NE
Cosmos 1743 Rocket 3.7 16:45:02 10° N 16:49:18 52° ENE 16:53:34 10° SSE
Cosmos 1656 Rocket 4.4 16:46:04 10° SW 16:51:28 53° WNW 16:56:50 10° NNE
Cosmos 1340 Rocket 3.1 16:50:08 10° SSW 16:54:08 74° WNW 16:58:12 10° N
Okean O Rocket 3.0 16:51:08 10° S 16:55:22 45° W 16:59:35 10° NNW
ALOS 3.8 16:52:48 10° SSW 16:57:12 41° W 17:01:38 10° NNW
NOAA 12 4.4 16:53:28 10° SE 16:58:29 44° ENE 17:03:31 10° N
Cosmos 1825 2.3 16:55:46 10° N 16:59:34 81° W 17:03:20 10° S
Cosmos 2123 Rocket 4.0 16:53:36 10° S 16:59:49 88° ESE 17:06:04 10° N
GEOS 3 Rocket 3.7 16:54:37 10° NE 16:59:51 69° SE 17:05:06 10° SSW
CZ-4 R/B 2.8 16:56:58 10° ESE 16:59:57 19° ENE 17:02:55 10° NNE
ATLAS 3B R/B 4.4 16:58:34 10° WNW 17:03:22 20° NNW 17:08:10 10° NNE
Cosmos 1869 4.3 17:00:24 10° SE 17:03:40 25° E 17:06:57 10° NNE
SMAP 3.0 17:01:24 10° SSE 17:06:02 78° ENE 17:10:43 10° N
Cosmos 1725 Rocket 4.3 17:01:12 10° N 17:07:33 78° W 17:13:50 10° S
Cosmos 2219 3.2 17:03:31 10° NNW 17:09:05 58° ENE 17:14:37 10° SE
Cosmos 1238 Rocket 2.9 17:08:28 10° N 17:13:12 69° E 17:17:01 10° SSE
Cosmos 2369 Rocket 4.3 17:10:11 10° W 17:14:19 21° NW 17:18:28 10° N
Cosmos 1500 Rocket 3.5 17:10:17 10° N 17:14:42 87° E 17:19:03 10° S
Cosmos 1633 Rocket 4.2 17:17:11 10° NNE 17:20:37 22° ENE 17:24:01 10° ESE
Cosmos 1633 3.7 17:19:46 10° NNE 17:22:44 23° ENE 17:25:43 10° SE
TELKOM 3 2.8 17:23:28 10° WNW 17:25:36 54° NNE 17:26:20 31° E
COSMO-SKYMED 1 3.2 17:22:33 10° NNE 17:26:34 35° E 17:30:32 10° SSE
CSL-04 Rocket 4.2 17:22:21 10° SE 17:27:11 35° ENE 17:31:58 10° N
FengYun 1-2 T 4.4 17:22:21 10° SE 17:27:39 49° ENE 17:32:57 10° N
Cosmos 2344 3.9 17:20:49 10° SW 17:28:17 67° NW 17:36:39 10° NE
COBE Rocket 3.8 17:24:17 10° NNE 17:29:08 70° E 17:33:49 10° S
Cosmos 1666 Rocket 4.2 17:26:27 10° N 17:30:22 31° ENE 17:34:15 10° SE
Cosmos 1980 Rocket 4.1 17:28:34 10° ESE 17:28:59 11° ESE 17:28:59 11° ESE
Cosmos 1607 3.9 17:24:31 10° NNW 17:30:42 66° NE 17:36:56 10° SE
Cosmos 2227 Rocket 2.3 17:25:58 10° NNW 17:31:33 55° ENE 17:37:05 10° SE
Cosmos 2297 Rocket 2.2 17:26:26 10° NNW 17:32:03 59° ENE 17:37:37 10° SE
Sich 1 3.2 17:32:38 10° N 17:36:50 47° ENE 17:41:02 10° SSE
Meteor 2-2 Rocket 4.2 17:32:33 10° S 17:38:25 78° E 17:44:13 10° NNE
YAOGAN 6 2.7 17:35:50 10° SSE 17:39:12 46° ENE 17:42:34 10° N
Cosmos 2084 3.4 17:35:35 10° NW 17:39:55 83° SW 17:44:07 10° SE
USA 215 3.7 17:37:19 18° E 17:41:56 47° NNE 17:48:09 10° NW
H-2A R/B 3.9 17:39:36 10° S 17:43:19 46° W 17:47:03 10° NNW
Envisat 2.9 17:40:28 10° SSE 17:45:33 87° ENE 17:50:41 10° NNW
Cosmos 2369 4.4 17:41:12 10° SSE 17:46:07 32° ESE 17:48:29 23° ENE
USA 229 DEB 3.6 17:42:30 10° SSW 17:49:00 67° ESE 17:54:26 17° NE
USA 229 3.6 17:42:39 10° SSW 17:49:06 67° ESE 17:54:29 17° NE
Cosmos 1862 3.6 17:48:10 10° N 17:51:58 42° ENE 17:55:45 10° SSE
Cosmos 2034 Rocket 4.2 17:46:27 10° N 17:52:32 47° ENE 17:58:38 10° SSE
NOSS 3-1 (A) 3.7 17:49:15 10° S 17:54:22 42° ESE 17:57:11 26° ENE
NOSS 3-1 (C) 3.3 17:50:16 10° SSW 17:55:42 66° ESE 17:59:56 21° NE
Genesis I 3.7 17:51:43 10° SW 17:55:42 60° NW 17:58:15 21° NNE
YAOGAN 1 2.6 17:51:55 10° SSE 17:56:08 55° ENE 18:00:22 10° N
Cosmos 2263 Rocket 3.8 17:54:28 10° N 17:57:18 16° NE 17:57:18 16° NE
Cosmos 2082 3.7 17:52:20 10° NNW 17:57:53 55° ENE 18:02:34 14° SE
Okean-O 3.6 17:55:39 10° S 17:59:57 49° W 18:04:16 10° NNW
Cosmos 2221 4.2 17:58:49 10° SW 18:02:45 34° WNW 18:06:43 10° N
PSLV R/B 4.4 18:02:17 10° SW 18:04:08 24° S 18:04:08 24° S
SeaSat 1 3.5 18:01:28 10° S 18:06:10 46° WSW 18:10:56 10° NW
Cosmos 2278 4.3 18:01:36 10° SSE 18:06:39 34° ESE 18:07:12 34° E
Meteor 2-11 Rocket 4.4 18:03:44 10° N 18:09:47 59° ENE 18:15:49 10° SSE
Cosmos 1697 Rocket 2.9 18:05:05 10° S 18:10:26 45° ESE 18:12:06 36° ENE
Cosmos 1356 Rocket 3.6 18:06:50 10° SSW 18:10:57 73° WNW 18:15:10 10° N
USA 116 4.0 18:09:07 17° NNE 18:12:34 69° ESE 18:17:30 10° S
Tsikada Rocket 4.3 18:07:08 10° SSE 18:13:02 42° E 18:19:01 10° NNE
SKYMED 2 3.7 18:10:26 10° N 18:14:48 74° WNW 18:19:07 10° SSW
Lacrosse 4 Rocket 1.8 18:12:16 10° S 18:15:36 43° SE 18:15:36 43° SE
ATLAS 5 CENTAUR R/B 2.6 18:12:31 10° NW 18:18:18 73° SW 18:24:56 10° SSE
Cosmos 1680 Rocket 3.6 18:14:59 10° S 18:19:58 48° ESE 18:20:18 47° E
H-2A R/B 4.1 18:31:12 14° NNE 18:31:12 14° NNE 18:32:10 10° N
Ariane Rocket 3.0 18:28:22 55° ENE 18:28:28 55° ENE 18:33:26 10° N
ERBS 3.9 18:30:01 10° SW 18:31:44 27° SSW 18:31:44 27° SSW
NOSS 2-3 (C) 4.3 18:30:11 10° SSW 18:33:14 40° SSE 18:33:14 40° SSE
CZ-4 R/B 2.6 18:30:42 10° S 18:34:42 43° W 18:38:39 10° NNW
Cosmos 724 4.2 18:31:58 10° NNW 18:37:47 63° NE 18:38:19 60° ENE
NOAA 11 4.1 18:35:09 10° SSE 18:40:34 87° WSW 18:46:03 10° NNW
CENTAUR R/B 4.4 18:35:29 10° NW 18:41:02 22° NNE 18:42:53 20° NNE
Cosmos 923 Rocket 3.9 18:38:33 10° SSW 18:43:47 83° WNW 18:45:14 49° NNE
Cosmos 1656 4.2 18:44:10 10° SW 18:49:36 55° WNW 18:52:28 27° N
Cosmos 2056 Rocket 4.3 18:44:47 10° NNW 18:48:06 38° N 18:48:06 38° N
Cosmos 1939 Rocket 4.1 18:53:38 38° NNW 18:53:38 38° NNW 18:56:21 10° NNW
ATLAS 3B R/B 4.3 18:52:21 10° NNW 18:56:45 18° N 18:57:16 18° NNE
Cosmos 1633 Rocket 4.4 18:54:26 10° NNW 18:58:33 39° W 19:02:39 10° SSW
Cosmos 1980 Rocket 3.3 19:07:50 10° SSW 19:10:50 33° SSW 19:10:50 33° SSW
Cosmos 2227 Rocket 4.2 19:10:42 10° NW 19:15:13 25° WSW 19:19:44 10° SSW
Cosmos 2297 Rocket 4.4 19:11:19 10° NW 19:15:39 23° WSW 19:19:57 10° SSW
USA 215 3.2 19:24:41 78° SW 19:24:43 78° SW 19:31:18 10° NW
Cosmos 2263 Rocket 4.1 19:37:10 10° NNW 19:39:01 22° NNW 19:39:01 22° NNW
NOSS 3-1 (A) 4.3 19:39:46 10° WSW 19:44:40 42° NW 19:44:40 42° NW
Cosmos 1697 Rocket 4.2 19:49:30 10° WSW 19:53:53 32° WNW 19:53:53 32° WNW
